[[{"header":{"parameterUnit":"m.s-1","parameterCategory":1,"la1":30.2991,"la2":30.254,"lo1":-89.0895,"lo2":-89.0444,"dy":0.0017,"dx":0.0017,"nx":28,"ny":28,"refTime":"2024-10-18T03:00:00:Z","depth":0,"parameterNumber":2,"parameterNumberName":"U-component_of_WINDS"},"data":[0,0,0,0,0,0,0,0,0,0,0,0,0,0,0,0,0,0,0,0,0,0,0,0,0,0,0,0,0,0,0,0,0,0,0,0,0,0,0,0,0,0,0,0,0,0,0,0,0,0,0,0,0,0,0,0,0,0,-1.4368,-1.4368,0,-1.4368,-1.4368,-1.4368,-1.434,-1.434,-1.4339,-1.4338,-1.4338,-1.4339,-1.434,0,0,0,0,0,0,0,0,0,0,0,0,0,-1.4343,-1.4344,-1.4368,-1.4368,-1.4368,-1.4368,-1.4368,-1.4368,-1.434,-1.434,-1.4339,-1.4338,-1.4338,-1.4339,-1.434,0,0,0,0,0,0,0,0,0,0,0,0,0,-1.435,-1.4344,-1.4368,-1.4354,-1.4353,-1.4368,-1.4368,-1.4368,-1.4341,-1.434,-1.4338,-1.4337,-1.4338,-1.4339,-1.434,-1.4368,0,0,-1.4343,-1.4344,0,0,0,0,0,0,0,0,-1.4349,-1.4351,-1.4356,-1.4355,-1.4354,-1.4353,-1.4359,-1.4368,-1.4341,-1.4345,-1.4338,-1.4337,-1.4344,-1.4345,-1.4347,-1.4368,-1.4368,-1.4343,-1.4344,-1.4344,-1.4345,0,0,0,0,0,0,0,-1.4349,-1.435,-1.4368,-1.4356,-1.4355,-1.4348,-1.4347,-1.4361,-1.4351,-1.4345,-1.4343,-1.4343,-1.4343,-1.4346,-1.4347,-1.4368,-1.4343,-1.4344,-1.4345,-1.4345,-1.4412,-1.4413,0,0,0,0,0,0,-1.435,-1.435,-1.4368,-1.4368,-1.4349,-1.4349,-1.4349,-1.4354,-1.4351,-1.4349,-1.4344,-1.4342,-1.4345,-1.4346,-1.4347,-1.4379,-1.4344,-1.4345,-1.4346,-1.4411,-1.4412,-1.4413,0,0,0,0,0,0,-1.435,-1.4352,-1.4368,-1.4358,-1.436,-1.4351,-1.4357,-1.4355,-1.4358,-1.435,-1.4348,-1.4349,-1.4344,-1.4345,-1.4363,-1.4378,-1.4346,-1.4347,-1.4409,-1.4411,-1.4413,-1.4444,0,0,0,0,0,0,-1.4349,-1.4352,-1.4363,-1.4359,-1.436,-1.4384,-1.4358,-1.4356,-1.4359,-1.4357,-1.4354,-1.4353,-1.4343,-1.4362,-1.4364,-1.4379,-1.4348,-1.4408,-1.441,-1.4412,-1.4441,-1.4446,-1.4451,0,0,0,0,0,-1.4348,-1.4372,-1.4364,-1.4366,-1.4374,-1.4385,-1.4386,-1.4375,-1.4361,-1.4371,-1.4366,-1.4353,-1.4377,-1.4364,-1.4366,-1.4382,-1.4407,-1.4409,-1.4412,-1.4439,-1.4445,-1.4451,0,0,0,0,0,0,-1.4378,-1.4371,-1.4362,-1.4385,-1.4386,-1.438,-1.4393,-1.4382,-1.4387,-1.4384,-1.437,-1.4369,-1.4389,-1.4387,-1.4373,-1.4409,-1.4389,-1.4392,-1.4409,-1.4415,-1.4419,-1.4419,-1.4348,0,0,0,0,0,-1.4388,-1.4397,-1.4391,-1.4411,-1.4412,-1.4403,-1.4407,-1.4399,-1.4399,-1.4399,-1.4396,-1.4397,-1.4404,-1.4409,-1.4416,-1.4441,-1.444,-1.4453,-1.4458,-1.4462,-1.4465,-1.4477,-1.4482,-1.4422,-1.4422,-1.4422,0,0,-1.4407,-1.4404,-1.4411,-1.4417,-1.4417,-1.4427,-1.4403,-1.4415,-1.4423,-1.4401,-1.4417,-1.4415,-1.4415,-1.4436,-1.4445,-1.4435,-1.4481,-1.4465,-1.4468,-1.4469,-1.448,-1.4486,-1.4491,-1.4423,-1.4423,-1.4423,0,0,-1.4447,-1.4446,-1.4463,-1.4463,-1.4462,-1.4456,-1.446,-1.4456,-1.4454,-1.447,-1.4453,-1.4462,-1.4476,-1.4476,-1.4478,-1.4517,-1.4505,-1.452,-1.4544,-1.4556,-1.4561,-1.4565,-1.4579,-1.4584,-1.4523,-1.4523,-1.4523,0,-1.4471,-1.4485,-1.4473,-1.4486,-1.4489,-1.4469,-1.4486,-1.4487,-1.4489,-1.4491,-1.448,-1.4496,-1.4495,-1.4515,-1.4525,-1.4527,-1.4531,-1.452,-1.4562,-1.4566,-1.4569,-1.4582,-1.4587,-1.4525,-1.4525,-1.4524,-1.4524,0,-1.4514,-1.4525,-1.4538,-1.454,-1.4545,-1.456,-1.4549,-1.4555,-1.4546,-1.454,-1.4556,-1.4554,-1.456,-1.4564,-1.4556,-1.4583,-1.4577,-1.4564,-1.4544,-1.4577,-1.4589,-1.4594,-1.4527,-1.4527,-1.4526,-1.4526,0,0,-1.4574,-1.4568,-1.4573,-1.4573,-1.4571,-1.4579,-1.4592,-1.4597,-1.4603,-1.4605,-1.4615,-1.4627,-1.4615,-1.4617,-1.4608,-1.4619,-1.4649,-1.4604,-1.4604,-1.4612,-1.4679,-1.4689,-1.4694,-1.4641,-1.4642,-1.4643,-1.4679,0,-1.4612,-1.4634,-1.4623,-1.4647,-1.4656,-1.4638,-1.4649,-1.4649,-1.4645,-1.4651,-1.4646,-1.4654,-1.4638,-1.4639,-1.4649,-1.4644,-1.4663,-1.4641,-1.4651,-1.4651,-1.4651,-1.4701,-1.4711,-1.4745,-1.4683,-1.4684,-1.4685,0,-1.4659,-1.4663,-1.4688,-1.4683,-1.4686,-1.4697,-1.47,-1.4707,-1.4707,-1.4702,-1.4705,-1.4693,-1.4706,-1.4686,-1.4703,-1.4689,-1.4692,-1.469,-1.4691,-1.4691,-1.467,-1.4701,-1.4756,-1.4761,-1.4692,-1.4691,-1.4691,0,-1.4699,-1.471,-1.4726,-1.4727,-1.4722,-1.473,-1.4728,-1.4726,-1.473,-1.4733,-1.4735,-1.474,-1.4742,-1.4746,-1.4736,-1.4723,-1.4754,-1.4734,-1.475,-1.4751,-1.4758,-1.4757,-1.4813,-1.4761,-1.4761,-1.4761,-1.476,0,-1.4743,-1.4759,-1.4743,-1.4753,-1.477,-1.4757,-1.4774,-1.4771,-1.4769,-1.4778,-1.4762,-1.4771,-1.4757,-1.4764,-1.4756,-1.4771,-1.4773,-1.4769,-1.4767,-1.477,-1.4771,-1.4772,-1.4769,-1.4762,-1.4762,-1.4761,-1.4761,0,-1.479,-1.4781,-1.4797,-1.4791,-1.4789,-1.4802,-1.4797,-1.4805,-1.4799,-1.481,-1.4812,-1.4803,-1.481,-1.48,-1.4807,-1.4802,-1.4822,-1.4816,-1.4822,-1.482,-1.4837,-1.4836,-1.4895,-1.4902,-1.4846,-1.4847,-1.4847,0,-1.4818,-1.483,-1.4825,-1.4829,-1.4828,-1.4836,-1.4839,-1.4826,-1.4831,-1.483,-1.4839,-1.4845,-1.4849,-1.4861,-1.4855,-1.486,-1.4854,-1.4875,-1.4855,-1.4858,-1.4854,-1.4853,-1.4854,-1.4879,-1.4879,-1.488,-1.488,0,-1.4869,-1.4864,-1.4869,-1.4872,-1.4877,-1.4879,-1.488,-1.4885,-1.4871,-1.4877,-1.4884,-1.4887,-1.4893,-1.4899,-1.4902,-1.49,-1.4888,-1.4887,-1.4891,-1.4894,-1.4897,-1.4895,-1.4833,-1.4885,-1.4885,-1.4884,-1.4884,-1.4884,-1.4908,-1.4917,-1.4914,-1.492,-1.4919,-1.4921,-1.4928,-1.4923,-1.4928,-1.4932,-1.4924,-1.4933,-1.4932,-1.4934,-1.4934,-1.4941,-1.4932,-1.4938,-1.4939,-1.4941,-1.4943,-1.4896,-1.4941,-1.4941,-1.4941,-1.4941,-1.4941,0,-1.4957,-1.4954,-1.496,-1.4962,-1.4966,-1.4954,-1.4954,-1.4959,-1.4967,-1.4966,-1.497,-1.4978,-1.4984,-1.4978,-1.4982,-1.4989,-1.4983,-1.499,-1.4989,-1.4989,-1.4951,-1.4947,-1.4995,-1.4995,-1.4994,-1.4994,-1.4994,-1.4994,-1.4984,-1.4998,-1.4992,-1.5006,-1.5003,-1.5011,-1.5012,-1.5013,-1.5012,-1.5022,-1.5026,-1.5022,-1.5019,-1.5023,-1.5027,-1.5025,-1.5027,-1.5036,-1.5033,-1.4997,-1.4992,-1.4987,-1.4983,-1.5037,-1.5037,-1.507,-1.507,-1.507]},{"header":{"parameterUnit":"m.s-1","parameterCategory":1,"la1":30.2991,"la2":30.254,"lo1":-89.0895,"lo2":-89.0444,"dy":0.0017,"dx":0.0017,"nx":28,"ny":28,"refTime":"2024-10-18T03:00:00:Z","depth":0,"parameterNumber":3,"parameterNumberName":"V-component_of_WINDS"},"data":[0,0,0,0,0,0,0,0,0,0,0,0,0,0,0,0,0,0,0,0,0,0,0,0,0,0,0,0,0,0,0,0,0,0,0,0,0,0,0,0,0,0,0,0,0,0,0,0,0,0,0,0,0,0,0,0,0,0,-0.287,-0.287,0,-0.285,-0.285,-0.285,-0.2845,-0.2845,-0.2845,-0.2845,-0.2822,-0.2821,-0.282,0,0,0,0,0,0,0,0,0,0,0,0,0,-0.2899,-0.2899,-0.287,-0.2869,-0.2869,-0.285,-0.285,-0.285,-0.2845,-0.2845,-0.2845,-0.2845,-0.2822,-0.2821,-0.282,0,0,0,0,0,0,0,0,0,0,0,0,0,-0.2884,-0.2899,-0.287,-0.2864,-0.2864,-0.285,-0.285,-0.285,-0.2845,-0.2845,-0.2845,-0.2845,-0.2822,-0.2821,-0.282,-0.2809,0,0,-0.2817,-0.2816,0,0,0,0,0,0,0,0,-0.2885,-0.2883,-0.2865,-0.2865,-0.2864,-0.285,-0.2852,-0.2836,-0.2845,-0.2852,-0.2845,-0.2845,-0.2831,-0.2829,-0.2825,-0.2808,-0.2807,-0.2816,-0.2816,-0.2815,-0.2815,0,0,0,0,0,0,0,-0.2886,-0.2883,-0.2862,-0.2865,-0.2864,-0.2862,-0.286,-0.2849,-0.284,-0.2851,-0.2851,-0.2849,-0.283,-0.2826,-0.2824,-0.2807,-0.2816,-0.2815,-0.2815,-0.2814,-0.2781,-0.278,0,0,0,0,0,0,-0.2888,-0.2884,-0.2863,-0.2861,-0.2875,-0.2861,-0.2859,-0.2854,-0.284,-0.2839,-0.2849,-0.2849,-0.2828,-0.2825,-0.2823,-0.281,-0.2815,-0.2814,-0.2814,-0.2781,-0.2781,-0.278,0,0,0,0,0,0,-0.2889,-0.2886,-0.2863,-0.2873,-0.287,-0.2861,-0.2855,-0.2854,-0.2849,-0.2839,-0.2837,-0.2846,-0.2828,-0.2825,-0.2813,-0.2809,-0.2814,-0.2813,-0.2781,-0.2781,-0.278,-0.2783,0,0,0,0,0,0,-0.289,-0.2887,-0.2883,-0.2873,-0.2869,-0.2854,-0.2855,-0.2853,-0.2848,-0.2848,-0.2835,-0.2833,-0.2828,-0.2815,-0.2812,-0.2808,-0.2812,-0.2781,-0.2781,-0.278,-0.2784,-0.2783,-0.2783,0,0,0,0,0,-0.2891,-0.2884,-0.2883,-0.288,-0.2865,-0.2854,-0.2852,-0.2847,-0.2848,-0.2844,-0.2837,-0.2834,-0.281,-0.2814,-0.281,-0.2806,-0.2782,-0.2781,-0.2781,-0.2784,-0.2783,-0.2783,0,0,0,0,0,0,-0.2893,-0.2883,-0.2881,-0.2871,-0.2864,-0.2853,-0.2848,-0.2846,-0.2837,-0.2837,-0.283,-0.2827,-0.2816,-0.2809,-0.2814,-0.2795,-0.2796,-0.2794,-0.2799,-0.2799,-0.2798,-0.28,-0.2811,0,0,0,0,0,-0.2892,-0.2886,-0.2876,-0.2868,-0.2865,-0.2857,-0.2852,-0.2849,-0.284,-0.2837,-0.2829,-0.282,-0.281,-0.2804,-0.2795,-0.2783,-0.278,-0.2778,-0.2777,-0.2777,-0.2776,-0.2769,-0.2768,-0.2779,-0.2779,-0.2779,0,0,-0.2891,-0.2884,-0.288,-0.2869,-0.2863,-0.2855,-0.2855,-0.2846,-0.284,-0.2835,-0.2824,-0.2818,-0.2807,-0.2795,-0.279,-0.279,-0.2773,-0.2777,-0.2776,-0.2776,-0.2769,-0.2768,-0.2767,-0.2778,-0.2778,-0.2778,0,0,-0.2884,-0.2879,-0.2872,-0.2866,-0.2857,-0.2852,-0.285,-0.284,-0.2836,-0.2825,-0.2821,-0.2813,-0.2797,-0.279,-0.2784,-0.2775,-0.2772,-0.2772,-0.277,-0.2763,-0.2762,-0.2762,-0.2758,-0.2757,-0.2771,-0.2771,-0.2771,0,-0.2883,-0.2873,-0.2868,-0.286,-0.2855,-0.2851,-0.2843,-0.2837,-0.2825,-0.2821,-0.2822,-0.2802,-0.2794,-0.2781,-0.2779,-0.2774,-0.2771,-0.2773,-0.2763,-0.2762,-0.2761,-0.2758,-0.2757,-0.2771,-0.2771,-0.2771,-0.2771,0,-0.2872,-0.2864,-0.2859,-0.2849,-0.2843,-0.2835,-0.2829,-0.2823,-0.282,-0.2815,-0.2803,-0.2794,-0.2783,-0.278,-0.2776,-0.2765,-0.2766,-0.2765,-0.2766,-0.2761,-0.2757,-0.2756,-0.2771,-0.2771,-0.2771,-0.2771,0,0,-0.2866,-0.2854,-0.2852,-0.2847,-0.2837,-0.2831,-0.2823,-0.2813,-0.2808,-0.28,-0.2792,-0.2779,-0.2778,-0.2771,-0.2767,-0.2761,-0.2754,-0.2761,-0.276,-0.276,-0.2742,-0.2743,-0.2741,-0.2752,-0.2752,-0.2752,-0.2743,0,-0.2858,-0.2844,-0.284,-0.2828,-0.2821,-0.2817,-0.281,-0.2802,-0.2797,-0.279,-0.2783,-0.2774,-0.2774,-0.277,-0.2764,-0.2757,-0.2751,-0.2757,-0.2744,-0.2744,-0.2747,-0.274,-0.274,-0.2732,-0.2741,-0.2741,-0.2741,0,-0.2847,-0.284,-0.2828,-0.2819,-0.2816,-0.2809,-0.28,-0.2793,-0.2784,-0.2781,-0.2774,-0.277,-0.276,-0.2762,-0.2748,-0.2752,-0.2747,-0.2742,-0.2742,-0.274,-0.2742,-0.2738,-0.2729,-0.2728,-0.2739,-0.2739,-0.2739,0,-0.2844,-0.2831,-0.2822,-0.2818,-0.2808,-0.2803,-0.2798,-0.279,-0.2784,-0.2776,-0.2772,-0.2762,-0.2757,-0.2748,-0.2742,-0.2744,-0.2728,-0.2729,-0.2724,-0.2725,-0.2721,-0.2721,-0.2712,-0.2718,-0.2718,-0.2718,-0.2718,0,-0.2835,-0.2828,-0.2821,-0.2815,-0.2807,-0.2801,-0.2793,-0.2787,-0.278,-0.2773,-0.2768,-0.2761,-0.2753,-0.2745,-0.2739,-0.2728,-0.2726,-0.2722,-0.272,-0.2722,-0.2723,-0.2718,-0.2719,-0.2717,-0.2718,-0.2718,-0.2718,0,-0.283,-0.2825,-0.2815,-0.2807,-0.2804,-0.2798,-0.279,-0.2784,-0.2779,-0.277,-0.2767,-0.2759,-0.2749,-0.2741,-0.2728,-0.2724,-0.2712,-0.2711,-0.2716,-0.2715,-0.2711,-0.2711,-0.2698,-0.2695,-0.2703,-0.2703,-0.2703,0,-0.2825,-0.282,-0.2811,-0.2806,-0.2802,-0.2794,-0.2789,-0.2783,-0.2778,-0.2767,-0.2762,-0.2752,-0.2744,-0.2728,-0.272,-0.271,-0.2708,-0.2704,-0.2706,-0.2708,-0.2707,-0.2708,-0.2707,-0.2703,-0.2703,-0.2703,-0.2703,0,-0.2817,-0.2815,-0.2808,-0.28,-0.2794,-0.2787,-0.278,-0.2777,-0.2769,-0.2763,-0.2754,-0.2747,-0.2734,-0.2724,-0.2713,-0.2707,-0.2704,-0.2703,-0.2701,-0.2703,-0.2706,-0.2704,-0.2715,-0.2703,-0.2703,-0.2703,-0.2703,-0.2703,-0.2812,-0.2807,-0.28,-0.2792,-0.2786,-0.278,-0.2774,-0.2769,-0.2761,-0.2751,-0.2748,-0.2738,-0.2728,-0.2714,-0.2707,-0.2699,-0.2699,-0.2696,-0.2696,-0.2695,-0.2695,-0.2707,-0.2697,-0.2697,-0.2697,-0.2697,-0.2697,0,-0.2803,-0.2799,-0.2792,-0.2783,-0.2776,-0.2775,-0.2767,-0.2762,-0.2754,-0.2746,-0.2738,-0.2727,-0.2717,-0.2709,-0.2698,-0.2693,-0.2691,-0.2691,-0.2691,-0.2689,-0.2696,-0.2698,-0.2692,-0.2692,-0.2692,-0.2692,-0.2692,-0.2692,-0.2798,-0.2789,-0.2786,-0.2775,-0.277,-0.2761,-0.2757,-0.2751,-0.2745,-0.2733,-0.2725,-0.272,-0.2712,-0.2701,-0.2691,-0.2689,-0.2685,-0.2685,-0.2682,-0.2688,-0.2689,-0.2689,-0.2692,-0.2684,-0.2684,-0.2676,-0.2676,-0.2676]}]]